Tracking 18843 objects as of 20-November-2017
HD Live streaming from Space Station
objects crossing your sky now

FENGYUN 1C DEB

Track FENGYUN 1C DEB now!
10-day predictions


NORAD ID: 35128
Int'l Code: 1999-025DLG
Perigee: 783.8 km
Apogee: 986.0 km
Inclination: 98.4 °
Period: 102.5 minutes
Semi major axis: 7255 km
RCS: 0.0122 m2 (small)
Launch date: May 10, 1999
Source: People's Republic of China (PRC)
Launch site: Taiyaun Space Center, China (TSC)

Note: This is SATELLITE DEBRIS
aabbcc
Your satellite tracking list
Your tracking list is empty




NASA's NSSDC Master Catalog

Two Line Element Set (TLE):
1 35128U 99025DLG 17323.31798544 +.00001670 +00000-0 +97939-3 0  9995
2 35128 098.3513 354.0717 0139356 182.9753 177.0602 14.04649830213759
Source of the keplerian elements: AFSPC